This demonstration page uses our WeatherBlox Daily Observations layout. Learn more.

Left ArrowRight Arrow

Hourly Observations for January 31, 2022

Temp ( °F °C ) Dew Point ( °F °C ) Humidity (%) Winds ( mph kmh ) Pressure ( in mb ) Visibility ( mi km ) Precip ( " mm )
12:53 am 00:53 Mostly Clear 41 5 25 -3.9 53 53 WSW 13 20 29.57 1001 10 16 0.00 0.00
1:53 am 01:53 Clear 42 5.6 24 -4.4 49 49 SW 14 22 29.52 1000 10 16 0.00 0.00
2:53 am 02:53 Clear 38 3.3 25 -3.9 60 60 WSW 10 17 29.51 999 10 16 0.00 0.00
3:53 am 03:53 Clear 40 4.4 25 -3.9 55 55 W 12 19 29.48 998 10 16 0.00 0.00
4:53 am 04:53 Clear 42 5.6 24 -4.4 49 49 WSW 16 26 29.47 998 10 16 0.00 0.00
5:53 am 05:53 Clear 41 5 25 -3.9 53 53 WSW 17 28 29.47 998 10 16 0.00 0.00
6:53 am 06:53 Clear 41 5 26 -3.3 55 55 SW 24 39 29.49 999 10 16 0.00 0.00
7:53 am 07:53 Sunny 40 4.4 25 -3.9 55 55 SW 25 41 29.48 998 10 16 0.00 0.00
8:53 am 08:53 Sunny 39 3.9 24 -4.4 55 55 SW 22 35 29.51 999 10 16 0.00 0.00
9:53 am 09:53 Cloudy 38 3.3 22 -5.6 52 52 WSW 18 30 29.54 1000 10 16 0.00 0.00
10:53 am 10:53 Cloudy 40 4.4 20 -6.7 45 45 W 33 54 29.56 1001 10 16 0.00 0.00
11:40 am 11:40 Windy with Snow Likely 28 -2.2 23 -5 81 81 NW 30 48 29.71 1006 2 3 0.00 0.00
11:43 am 11:43 Windy with Snow Likely 28 -2.2 23 -5 81 81 NW 28 44 29.72 1007 1 2 0.00 0.00
11:48 am 11:48 Cloudy with Snow 27 -3 25 -4 93 93 NW 33 54 29.74 1007 1 1 0.00 0.00
11:53 am 11:53 Cloudy with Snow 26 -3.3 23 -5 88 88 NW 29 46 29.68 1005 0 0 0.00 0.00
12:02 pm 12:02 Cloudy with Heavy Snow 23 -5 20 -6.7 88 88 NW 29 46 29.78 1009 0 0 0.00 0.00
12:20 pm 12:20 Mostly Cloudy with Snow 22 -5.6 18 -7.8 85 85 NW 35 56 29.81 1009 1 1 0.00 0.00
12:48 pm 12:48 Windy with Snow Likely 19 -7 16 -9 86 86 NW 30 48 29.86 1011 1 2 0.00 0.00
12:49 pm 12:49 Windy with Snow Likely 20 -6.7 15 -9.4 81 81 NW 26 43 29.75 1008 1 2 0.00 0.00
12:51 pm 12:51 Windy with Snow Likely 20 -6.7 15 -9.4 81 81 NW 31 50 29.85 1011 2 3 0.00 0.00
12:59 pm 12:59 Cloudy 20 -6.7 12 -11.1 71 71 NW 31 50 29.86 1011 9 14 0.00 0.00
1:06 pm 13:06 Cloudy 19 -7.2 11 -11.7 71 71 NW 35 56 29.88 1012 10 16 0.00 0.00
1:44 pm 13:44 Windy with Snow Likely 18 -7.8 10 -12.2 71 71 NW 25 41 29.94 1014 6 10 0.00 0.00
1:53 pm 13:53 Windy with Snow Likely 18 -7.8 8 -13.3 65 65 NW 32 52 29.85 1011 5 8 0.00 0.00
2:02 pm 14:02 Cloudy 18 -7.8 7 -13.9 62 62 NW 23 37 29.97 1015 9 14 0.00 0.00
2:15 pm 14:15 Cloudy 17 -8.3 9 -12.8 70 70 NW 22 35 29.99 1016 10 16 0.00 0.00
2:41 pm 14:41 Cloudy 16 -8.9 6 -14.4 65 65 NW 22 35 30.03 1017 10 16 0.00 0.00
2:53 pm 14:53 Cloudy 16 -8.9 7 -13.9 67 67 NW 21 33 29.94 1014 10 16 0.00 0.00
3:15 pm 15:15 Cloudy 16 -8.9 7 -13.9 67 67 WNW 20 31 30.08 1019 10 16 0.00 0.00
3:53 pm 15:53 Cloudy 15 -9.4 5 -15 64 64 NW 25 41 30.00 1016 10 16 0.00 0.00
4:53 pm 16:53 Cloudy 13 -10.6 4 -15.6 67 67 NW 21 33 30.07 1018 10 16 0.00 0.00
5:22 pm 17:22 Cloudy 12 -11 1 -17 62 62 NW 17 28 30.22 1023 10 16 0.00 0.00
5:53 pm 17:53 Cloudy 12 -11.1 2 -16.7 64 64 NW 18 30 30.12 1020 10 16 0.00 0.00
6:46 pm 18:46 Cloudy 10 -12 1 -17 67 67 NW 17 28 30.30 1026 10 16 0.00 0.00
6:53 pm 18:53 Cloudy 11 -11.7 1 -17.2 64 64 NW 16 26 30.17 1022 10 16 0.00 0.00
7:03 pm 19:03 Cloudy 10 -12.2 1 -17.2 67 67 NW 18 30 30.32 1027 10 16 0.00 0.00
7:53 pm 19:53 Cloudy 10 -12.2 0 -17.8 63 63 NW 13 20 30.22 1023 10 16 0.00 0.00
8:12 pm 20:12 Cloudy 9 -12.8 0 -17.8 66 66 NW 17 28 30.37 1029 10 16 0.00 0.00
8:19 pm 20:19 Cloudy 9 -12.8 0 -17.8 66 66 NW 21 33 30.37 1029 10 16 0.00 0.00
8:28 pm 20:28 Cloudy 9 -12.8 0 -17.8 66 66 NW 17 28 30.37 1029 10 16 0.00 0.00
8:53 pm 20:53 Cloudy 9 -12.8 -1 -18.3 64 64 NW 17 28 30.24 1024 10 16 0.00 0.00
9:53 pm 21:53 Cloudy 8 -13.3 0 -17.8 69 69 WNW 10 17 30.27 1025 10 16 0.00 0.00
10:53 pm 22:53 Cloudy 7 -13.9 -2 -18.9 66 66 WNW 20 31 30.29 1026 10 16 0.00 0.00
11:53 pm 23:53 Cloudy 6 -14.4 -3 -19.4 66 66 NW 22 35 30.33 1027 10 16 0.00 0.00

Powered by AerisWeather